Location: *
(50.5492°N, 7.7469°E)
Time: 13:42:12
(UTC+00:00)

STARLINK-55 - Pass Details

Date: 21 October 2019
Orbit: 548 x 551 km, 53.0° (Epoch: 13 November)

Event Time Altitude Azimuth Distance (km) Brightness Sun altitude
Rises 17:37:57 0° 273° (W) 2,717 9.2 -12.1°
Reaches altitude 10° 17:40:13 10° 277° (W) 1,824 7.7 -12.5°
Maximum altitude 17:44:19 60° 358° (N) 631 3.9 -13.2°
Enters shadow 17:46:54 22° 73° (ENE) 1,247 4.8 -13.6°
